THOR ABLESTAR DEB, 469

Orbit data source: Space-Track

THOR ABLESTAR DEB, 469 is space debris in LEO originally from a launch on Thu, 29 Jun 1961 UTC launched from the Air Force Eastern Test Range (AFETR). Debris objects in space refer to the collection of defunct objects orbiting the Earth. Examples of debris include non-operational satellites, rocket bodies, and fragments generated from explosions, collisions, or faulty payload assembly.

Loading next visibility...
THOR ABLESTAR DEB details
Identifier
469, 1961-015FF
Orbit
LEO
Last TLE update19 hours ago
Origin
Flag of USUSAF SSD (US)
ManufacturerUnknown
MissionSpacecraft
Bus & MotorUnknown
MassUnknown
Launch date (UTC)
1961-06-29 (64 years ago)
Launch vehicleUnknown
Launch site
Air Force Eastern Test Range (AFETR)
Object type
Payload
Rocket body
Debris
Shape & HBRUnknown
Radar Cross SectionSmall (<0.1 m²)

Expand to show TLE details & history

TLE from 19 hours ago
0 THOR ABLESTAR DEB
1 00469U 61015FF  25037.32880234  .00002679  00000-0  97601-3 0  9999
2 00469  66.8352  15.0887 0061810 214.3176 145.3926 14.33551614281891
Epoch: 2025-02-06T07:53Z
Definitive object data (Epoch: 2025-02-06T07:53:28.522Z)
Latitude0.00002°
Longitude120.01291°
Altitude818.512 km
Speed7.425 km/s
True Right ascension01h 00m 21s
True Declination0° 00' 00"
Sunlit
Object was in daylight at TLE epoch
Visualization TLE readout
Latitude30.2331°
Longitude132.35042°
Altitude827.105 km
Speed7.42 km/s
Apparent Right ascension22h 22m 54s
Apparent Declination-6° 19' 08"
Sunlit
Object is in daylight
Visualization observer readout
Local Sidereal Time04:37:18
Azimuth267.44° W
Elevation-6.806°
Doppler factor1
Orbital elements
Apogee altitude822.474 km
Perigee altitude734.007 km
Semi-major axis7,156.377 km
Eccentricity0.006181
Inclination66.8352°
RAAN15.0887°
Arg. of periapsis214.3176°
True anomaly145.79233°
Mean anomaly145.3926°
Eccentric anomaly145.59272°
Mean motion3.58512 °/min
BSTAR0.00097601
Orbital period100.42 mins
Loading maneuver chart data...

THOR ABLESTAR DEB Visibility forecast

Observer location: undefined°, undefined

Span
Click to sort rows by Start time (UTC) header in descending order
Start Az.
Max El. time (UTC)
Max El. Az.
Max El.
End time (UTC)
End Az.
7 mins2025-02-07 07:51:54.539Z359.545° N2025-02-07 07:55:54.539Z51.97° ENE20.639°2025-02-07 07:58:54.539Z91.604° ESE
8 mins2025-02-07 09:35:54.539Z315.865° NNW2025-02-07 09:38:54.539Z258.513° W39.375°2025-02-07 09:43:54.539Z169.867° S
5 mins2025-02-07 22:32:54.539Z133.696° SE2025-02-07 22:34:54.539Z107.256° ESE18.573°2025-02-07 22:37:54.539Z69.543° E
9 mins2025-02-08 00:13:54.539Z227.829° WSW2025-02-08 00:17:54.539Z310.342° NW40.396°2025-02-08 00:22:54.539Z21.059° NNE
|